Weather WX

World > North America > United States > Missouri

Bolckow, Missouri Regional Weather

Lat: 40.11N, Lon: 94.82W
Wx Zone: MOZ012
Warning FLW WEATHER ALERT - (More Info. Click Here) Warning
Feedback

Bolckow, MO Regional Weather

Expires:201906170100;;185948
ASUS43 KEAX 170010
RWREAX

WEATHER ROUNDUP FOR EASTERN KANSAS AND NORTHWEST MISSOURI
NATIONAL WEATHER SERVICE KANSAS CITY/PLEASANT HILL MO
700 PM CDT SUN JUN 16 2019


MOZ001>008-011>017-020>025-030>033-038>040-044>046-053-054-170100-
...NORTHERN AND CENTRAL MISSOURI...
  
CITY           SKY/WX    TMP DP  RH WIND       PRES   REMARKS
ST. JOSEPH     CLOUDY    82  63  52 NW6       29.83R                  
6HR MIN TEMP:  82; 6HR MAX TEMP:  87;                                

MOSBY          CLEAR     82  61  47 CALM      29.82S                  
WARRENSBURG    PTSUNNY   77  64  65 SW3       29.83S                  
WHITEMAN AFB   PTSUNNY   78  71  80 W3        29.80R                  
6HR MIN TEMP:  78; 6HR MAX TEMP:  82;                                

CLINTON        CLOUDY    73  68  83 CALM      29.85R                  
SEDALIA        MOSUNNY   75  68  78 CALM      29.85R                  
6HR MIN TEMP:  74; 6HR MAX TEMP:  80;                                

WARSAW         NOT AVBL                                               
CHILLICOTHE      N/A     83  66  56 VRB5      29.82F                  
6HR MIN TEMP:  83; 6HR MAX TEMP:  88;                                

KIRKSVILLE     MOSUNNY   80  67  64 NE10      29.84S                  
6HR MIN TEMP:  79; 6HR MAX TEMP:  84;                                


$$


SKY/WX - Weather  TMP - Temperature  DP - Dew Point  RH - Relative Humidity
WIND - Wind Direction/Speed PRES - Barometric Pressure VSB - Visibility
WCI - Wind Chill Index E13G22 Wind - East Wind 13 mph/Gusts of 22 mph